This is the latest recevied weather packets stored in our database for station/object SALIDA. If no packets are shown the sender has not sent any weather packets the latest 10 day(s).
| Time | Temp. | Humidity | Pressure | Rain* | Wind** | Luminosity | Snow |
|---|---|---|---|---|---|---|---|
| 1777499198 | 14.44° C | 32% | 1005.6 hPa | 0 mm | - | - | - |
| 1777498298 | 14.44° C | 33% | 1006 hPa | 0 mm | - | - | - |
| 1777497398 | 16.11° C | 27% | 1006.2 hPa | 0 mm | - | - | - |
| 1777496498 | 15° C | 22% | 1006.4 hPa | 0 mm | - | - | - |
| 1777495598 | 14.44° C | 25% | 1006.6 hPa | 0 mm | - | - | - |
| 1777494703 | 14.44° C | 26% | 1006.6 hPa | 0 mm | - | - | - |
| 1777494698 | 14.44° C | 26% | 1006.6 hPa | 0 mm | - | - | - |
| 1777493798 | 15° C | 24% | 1006.3 hPa | 0 mm | - | - | - |
| 1777492898 | 16.11° C | 24% | 1006.5 hPa | 0 mm | - | - | - |
| 1777491998 | 15° C | 28% | 1006.7 hPa | 0 mm | - | - | - |
| 1777491098 | 14.44° C | 28% | 1007 hPa | 0 mm | - | - | - |
| 1777490199 | 14.44° C | 30% | 1007.1 hPa | 0 mm | - | - | - |
| 1777489298 | 13.89° C | 33% | 1007.2 hPa | 0 mm | - | - | - |
| 1777488398 | 13.33° C | 32% | 1007.5 hPa | 0 mm | - | - | - |
| 1777487499 | 13.89° C | 35% | 1007.4 hPa | 0 mm | - | - | - |
| 1777486599 | 13.33° C | 37% | 1007.9 hPa | 0 mm | - | - | - |
| 1777485699 | 13.33° C | 39% | 1008.2 hPa | 0 mm | - | - | - |
| 1777484799 | 12.22° C | 41% | 1008.2 hPa | 0 mm | - | - | - |
| 1777483899 | 11.67° C | 42% | 1008.3 hPa | 0 mm | - | - | - |
| 1777482999 | 10.56° C | 46% | 1008.6 hPa | 0 mm | - | - | - |
| 1777482099 | 11.11° C | 46% | 1008.9 hPa | 0 mm | - | - | - |
| 1777481199 | 10.56° C | 50% | 1009.1 hPa | 0 mm | - | - | - |
| 1777480299 | 9.44° C | 52% | 1009.5 hPa | 0 mm | - | - | - |
| 1777479399 | 8.89° C | 53% | 1010 hPa | 0 mm | - | - | - |
| 1777478499 | 8.89° C | 55% | 1010.4 hPa | 0 mm | - | - | - |
* Rain latest hour (hover to see other rain measurements)
** Current wind speed in m/s (hover to see current wind gust speed)